Flag Weather past 2 weeks in Memphis, Tennessee, U.S.A.

Now
60 °F

More clouds than sun.


Feels Like: 60 °F
Forecast: 56 / 63 °F
Wind: 12 mph from Southeast

Location: Memphis International Airport

Current Time: Nov 23, 2014 at 9:04:26 AM

Latest Report: Nov 23, 2014 at 7:54 AM


Visibility: 10 mi

Pressure: 29.71 "Hg

Humidity: 83%

Dew point: 55 °F

Location of MemphisLocation

Historic Weather in Memphis — Graph

°F

Memphis temperature yesterday

Maximum temperature yesterday: 65 °F (at 11:54 AM)
Minimum temperature yesterday: 53 °F (at 6:54 AM)
Average temperature yesterday: 59 °F

Past Weeks' High & Low Weather Summary

 TemperatureHumidityPressure
High73 °F (Nov 10, 1:54 PM)93% (Nov 9, 2:54 AM)30.50 "Hg (Nov 9, 2:54 AM)
Low21 °F (Nov 18, 5:54 AM)27% (Nov 10, 2:54 PM)29.71 "Hg (Nov 23, 7:54 AM)
Average44 °F61%30.18 "Hg
* Reported Nov 8 7:54 AM — Nov 23 7:54 AM, Memphis, Weather by CustomWeather, © 2014

Note: Actual official high and low records may vary slightly from our data, if they occured in-between our weather recording intervals... More about our weather records

Advertising

Memphis weather history for previous 24 hours

 ConditionsComfort  
Time TempWeatherWind HumidityBarometerVisibility
7:54 AM
Nov 23
60 °FMore clouds than sun.12 mph83%29.71 "Hg10 mi
6:54 AM60 °FOvercast.14 mph80%29.74 "Hg10 mi
5:54 AM60 °FOvercast.15 mph83%29.75 "Hg10 mi
4:54 AM60 °FOvercast.14 mph80%29.76 "Hg10 mi
3:54 AM60 °FOvercast.9 mph78%29.78 "Hg10 mi
2:54 AM60 °FOvercast.10 mph75%29.83 "Hg10 mi
1:54 AM59 °FPartly cloudy.12 mph75%29.85 "Hg10 mi
12:54 AM59 °FPartly cloudy.10 mph72%29.89 "Hg10 mi
11:54 PM
Nov 22
59 °FPassing clouds.9 mph69%29.91 "Hg10 mi
10:54 PM60 °FPassing clouds.12 mph65%29.94 "Hg10 mi
9:54 PM60 °FPassing clouds.10 mph62%29.97 "Hg10 mi
8:54 PM59 °FPartly cloudy.12 mph60%30.00 "Hg10 mi
7:54 PM60 °FPassing clouds.14 mph52%30.02 "Hg10 mi
6:54 PM58 °FPassing clouds.7 mph51%30.03 "Hg10 mi
5:54 PM57 °FPartly cloudy.5 mph55%30.04 "Hg10 mi
4:54 PM61 °FPartly cloudy.3 mph48%30.04 "Hg10 mi
3:54 PM65 °FPartly cloudy.10 mph42%30.06 "Hg10 mi
2:54 PM65 °FPartly sunny.9 mph40%30.08 "Hg10 mi
1:54 PM64 °FPartly sunny.12 mph41%30.10 "Hg10 mi
12:54 PM65 °FPartly sunny.16 mph39%30.13 "Hg10 mi
11:54 AM65 °FPartly sunny.17 mph40%30.17 "Hg10 mi
10:54 AM64 °FBroken clouds.10 mph41%30.22 "Hg10 mi
9:54 AM60 °FPartly sunny.12 mph49%30.25 "Hg10 mi
Weather by CustomWeather, © 2014

See weather overviewHow to use our weather pages